,,,PA_Meas_PMT16A,,PR_Meas_QMR101_102,,RH_Meas_QMH101,,SR_Meas_QMS101,,TA_Meas_QMH101,,GenWind,,GenWind,
date,time,status,PA,status,PR,status,RH,status,SR,status,TA,status,DirAvg,status,SpdAvg,
2011-09-24, 00:00:04,VALID,1010.017,VALID,0.0,VALID,104.0,VALID,0.0,VALID,23.499,VALID,29.0,VALID,0.161,
2011-09-24, 00:01:04,VALID,1009.992,VALID,0.0,VALID,104.0,VALID,0.0,VALID,23.499,VALID,29.0,VALID,0.424,
2011-09-24, 00:02:04,VALID,1009.983,VALID,0.0,VALID,104.0,VALID,0.0,VALID,23.499,VALID,29.0,VALID,0.359,
2011-09-24, 00:03:04,VALID,1009.976,VALID,0.0,VALID,104.0,VALID,0.0,VALID,23.499,VALID,29.0,VALID,0.055,
2011-09-24, 00:04:04,VALID,1009.95,VALID,0.0,VALID,104.0,VALID,0.0,VALID,23.499,VALID,29.0,VALID,0.0,
2011-09-24, 00:05:04,VALID,1009.933,VALID,0.0,VALID,104.0,VALID,0.0,VALID,23.52,VALID,29.0,VALID,0.138,
2011-09-24, 00:06:04,VALID,1009.923,VALID,0.0,VALID,104.0,VALID,0.0,VALID,23.48,VALID,29.0,VALID,0.267,
2011-09-24, 00:07:04,VALID,1009.906,VALID,0.0,VALID,104.0,VALID,0.0,VALID,23.52,VALID,29.0,VALID,0.107,
2011-09-24, 00:08:04,VALID,1009.918,VALID,0.0,VALID,104.0,VALID,0.0,VALID,23.499,VALID,29.0,VALID,0.153,
2011-09-24, 00:09:04,VALID,1009.884,VALID,0.0,VALID,104.0,VALID,0.0,VALID,23.52,VALID,29.0,VALID,0.125,
2011-09-24, 00:10:04,VALID,1009.919,VALID,0.0,VALID,104.0,VALID,0.0,VALID,23.499,VALID,29.0,VALID,0.0,
2011-09-24, 00:11:04,VALID,1009.914,VALID,0.0,VALID,104.0,VALID,0.0,VALID,23.52,VALID,29.0,VALID,0.0,
2011-09-24, 00:12:04,VALID,1009.917,VALID,0.0,VALID,104.0,VALID,0.0,VALID,23.499,VALID,29.0,VALID,0.0,
2011-09-24, 00:13:04,VALID,1009.899,VALID,0.0,VALID,104.0,VALID,0.0,VALID,23.499,VALID,29.0,VALID,0.0,
2011-09-24, 00:14:04,VALID,1009.92,VALID,0.0,VALID,104.0,VALID,0.0,VALID,23.499,VALID,29.0,VALID,0.095,
2011-09-24, 00:15:04,VALID,1009.914,VALID,0.0,VALID,104.0,VALID,0.0,VALID,23.519,VALID,29.0,VALID,0.2,
2011-09-24, 00:16:04,VALID,1009.938,VALID,0.0,VALID,104.0,VALID,0.0,VALID,23.52,VALID,29.0,VALID,0.151,
2011-09-24, 00:17:04,VALID,1009.922,VALID,0.0,VALID,104.0,VALID,0.0,VALID,23.501,VALID,29.0,VALID,0.129,
2011-09-24, 00:18:04,VALID,1009.906,VALID,0.0,VALID,104.0,VALID,0.0,VALID,23.499,VALID,29.0,VALID,0.315,
2011-09-24, 00:19:04,VALID,1009.904,VALID,0.0,VALID,104.0,VALID,0.0,VALID,23.48,VALID,29.0,VALID,0.066,
2011-09-24, 00:20:04,VALID,1009.895,VALID,0.0,VALID,104.0,VALID,0.0,VALID,23.46,VALID,29.0,VALID,0.288,
2011-09-24, 00:21:04,VALID,1009.927,VALID,0.0,VALID,104.0,VALID,0.0,VALID,23.481,VALID,29.0,VALID,0.0,
2011-09-24, 00:22:04,VALID,1009.937,VALID,0.0,VALID,104.0,VALID,0.0,VALID,23.441,VALID,29.0,VALID,0.0,
2011-09-24, 00:23:04,VALID,1009.902,VALID,0.0,VALID,104.0,VALID,0.0,VALID,23.442,VALID,29.0,VALID,0.331,
2011-09-24, 00:24:04,VALID,1009.88,VALID,0.0,VALID,104.0,VALID,0.0,VALID,23.46,VALID,29.0,VALID,0.368,
2011-09-24, 00:25:04,VALID,1009.879,VALID,0.0,VALID,104.0,VALID,0.0,VALID,23.499,VALID,29.0,VALID,0.27,
2011-09-24, 00:26:04,VALID,1009.865,VALID,0.0,VALID,104.0,VALID,0.0,VALID,23.501,VALID,29.0,VALID,0.355,
2011-09-24, 00:27:04,VALID,1009.875,VALID,0.0,VALID,104.0,VALID,0.0,VALID,23.441,VALID,29.0,VALID,0.209,
2011-09-24, 00:28:04,VALID,1009.86,VALID,0.0,VALID,104.0,VALID,0.0,VALID,23.441,VALID,29.0,VALID,0.03,
2011-09-24, 00:29:04,VALID,1009.875,VALID,0.0,VALID,104.0,VALID,0.0,VALID,23.441,VALID,29.0,VALID,0.0,
2011-09-24, 00:30:04,VALID,1009.86,VALID,0.0,VALID,104.0,VALID,0.0,VALID,23.441,VALID,29.0,VALID,0.077,
2011-09-24, 00:31:04,VALID,1009.869,VALID,0.0,VALID,104.0,VALID,0.0,VALID,23.46,VALID,29.0,VALID,0.135,
2011-09-24, 00:32:04,VALID,1009.832,VALID,0.0,VALID,104.0,VALID,0.0,VALID,23.501,VALID,29.0,VALID,0.221,
2011-09-24, 00:33:04,VALID,1009.845,VALID,0.0,VALID,104.0,VALID,0.0,VALID,23.519,VALID,29.0,VALID,0.171,
2011-09-24, 00:34:04,VALID,1009.841,VALID,0.0,VALID,104.0,VALID,0.0,VALID,23.559,VALID,29.0,VALID,0.405,
2011-09-24, 00:35:04,VALID,1009.812,VALID,0.0,VALID,104.0,VALID,0.106,VALID,23.558,VALID,29.0,VALID,0.374,
2011-09-24, 00:36:04,VALID,1009.812,VALID,0.0,VALID,104.0,VALID,0.106,VALID,23.556,VALID,29.0,VALID,0.357,
2011-09-24, 00:37:04,VALID,1009.815,VALID,0.0,VALID,104.0,VALID,0.106,VALID,23.575,VALID,29.0,VALID,0.17,
2011-09-24, 00:38:04,VALID,1009.814,VALID,0.0,VALID,104.0,VALID,0.0,VALID,23.575,VALID,29.0,VALID,0.255,
2011-09-24, 00:39:04,VALID,1009.771,VALID,0.0,VALID,104.0,VALID,0.106,VALID,23.575,VALID,29.0,VALID,0.157,
2011-09-24, 00:40:04,VALID,1009.782,VALID,0.0,VALID,104.0,VALID,0.106,VALID,23.556,VALID,29.0,VALID,0.209,
2011-09-24, 00:41:04,VALID,1009.771,VALID,0.0,VALID,104.0,VALID,0.0,VALID,23.577,VALID,29.0,VALID,0.25,
2011-09-24, 00:42:04,VALID,1009.768,VALID,0.0,VALID,104.0,VALID,0.106,VALID,23.597,VALID,29.0,VALID,0.284,
2011-09-24, 00:43:04,VALID,1009.786,VALID,0.0,VALID,104.0,VALID,0.0,VALID,23.597,VALID,29.0,VALID,0.208,
2011-09-24, 00:44:04,VALID,1009.772,VALID,0.0,VALID,104.0,VALID,0.106,VALID,23.597,VALID,29.0,VALID,0.184,
2011-09-24, 00:45:04,VALID,1009.743,VALID,0.0,VALID,104.0,VALID,0.106,VALID,23.575,VALID,29.0,VALID,0.318,
2011-09-24, 00:46:04,VALID,1009.759,VALID,0.0,VALID,104.0,VALID,0.106,VALID,23.595,VALID,29.0,VALID,0.21,
2011-09-24, 00:47:04,VALID,1009.714,VALID,0.0,VALID,104.0,VALID,0.106,VALID,23.616,VALID,29.0,VALID,0.28,
2011-09-24, 00:48:04,VALID,1009.714,VALID,0.0,VALID,104.0,VALID,0.106,VALID,23.595,VALID,29.0,VALID,0.196,
2011-09-24, 00:49:04,VALID,1009.686,VALID,0.0,VALID,104.0,VALID,0.106,VALID,23.597,VALID,29.0,VALID,0.284,
2011-09-24, 00:50:04,VALID,1009.698,VALID,0.0,VALID,104.0,VALID,0.0,VALID,23.579,VALID,29.0,VALID,0.259,
2011-09-24, 00:51:04,VALID,1009.674,VALID,0.0,VALID,104.0,VALID,0.0,VALID,23.558,VALID,29.0,VALID,0.148,
2011-09-24, 00:52:04,VALID,1009.666,VALID,0.0,VALID,104.0,VALID,0.0,VALID,23.579,VALID,29.0,VALID,0.051,
2011-09-24, 00:53:04,VALID,1009.713,VALID,0.0,VALID,104.0,VALID,0.0,VALID,23.538,VALID,29.0,VALID,0.0,
2011-09-24, 00:54:04,VALID,1009.691,VALID,0.0,VALID,104.0,VALID,0.0,VALID,23.559,VALID,29.0,VALID,0.341,
2011-09-24, 00:55:04,VALID,1009.69,VALID,0.0,VALID,104.0,VALID,0.0,VALID,23.579,VALID,29.0,VALID,0.412,
2011-09-24, 00:56:04,VALID,1009.715,VALID,0.0,VALID,104.0,VALID,0.0,VALID,23.579,VALID,29.0,VALID,0.34,
2011-09-24, 00:57:04,VALID,1009.707,VALID,0.0,VALID,104.0,VALID,0.0,VALID,23.577,VALID,29.0,VALID,0.073,
2011-09-24, 00:58:04,VALID,1009.731,VALID,0.0,VALID,104.0,VALID,0.0,VALID,23.598,VALID,29.0,VALID,0.492,
2011-09-24, 00:59:04,VALID,1009.729,VALID,0.0,VALID,104.0,VALID,0.0,VALID,23.618,VALID,29.0,VALID,0.645,
2011-09-24, 01:00:04,VALID,1009.704,VALID,0.0,VALID,104.0,VALID,0.0,VALID,23.618,VALID,29.0,VALID,0.195,
2011-09-24, 01:01:04,VALID,1009.696,VALID,0.0,VALID,104.0,VALID,0.0,VALID,23.597,VALID,29.0,VALID,0.0,
2011-09-24, 01:02:04,VALID,1009.657,VALID,0.0,VALID,104.0,VALID,0.0,VALID,23.637,VALID,29.0,VALID,0.117,
2011-09-24, 01:03:04,VALID,1009.607,VALID,0.0,VALID,104.0,VALID,0.0,VALID,23.657,VALID,29.0,VALID,0.471,
2011-09-24, 01:04:04,VALID,1009.576,VALID,0.0,VALID,104.0,VALID,0.0,VALID,23.676,VALID,29.0,VALID,0.244,
2011-09-24, 01:05:04,VALID,1009.583,VALID,0.0,VALID,104.0,VALID,0.0,VALID,23.676,VALID,29.0,VALID,0.229,
2011-09-24, 01:06:04,VALID,1009.593,VALID,0.0,VALID,104.0,VALID,0.0,VALID,23.655,VALID,29.0,VALID,0.092,
2011-09-24, 01:07:04,VALID,1009.604,VALID,0.0,VALID,104.0,VALID,0.0,VALID,23.657,VALID,29.0,VALID,0.0,
2011-09-24, 01:08:04,VALID,1009.611,VALID,0.0,VALID,104.0,VALID,0.0,VALID,23.637,VALID,29.0,VALID,0.003,
2011-09-24, 01:09:04,VALID,1009.609,VALID,0.0,VALID,104.0,VALID,0.0,VALID,23.637,VALID,29.0,VALID,0.398,
2011-09-24, 01:10:04,VALID,1009.592,VALID,0.0,VALID,104.0,VALID,0.0,VALID,23.657,VALID,29.0,VALID,0.412,
2011-09-24, 01:11:04,VALID,1009.591,VALID,0.0,VALID,104.0,VALID,0.0,VALID,23.616,VALID,29.0,VALID,0.359,
2011-09-24, 01:12:04,VALID,1009.585,VALID,0.0,VALID,104.0,VALID,0.0,VALID,23.597,VALID,29.0,VALID,0.08,
2011-09-24, 01:13:04,VALID,1009.564,VALID,0.0,VALID,104.0,VALID,0.0,VALID,23.618,VALID,29.0,VALID,0.0,
2011-09-24, 01:14:04,VALID,1009.556,VALID,0.0,VALID,104.0,VALID,0.0,VALID,23.597,VALID,29.0,VALID,0.0,
2011-09-24, 01:15:04,VALID,1009.498,VALID,0.0,VALID,104.0,VALID,0.0,VALID,23.597,VALID,29.0,VALID,0.0,
2011-09-24, 01:16:04,VALID,1009.47,VALID,0.0,VALID,104.0,VALID,0.0,VALID,23.616,VALID,29.0,VALID,0.0,
2011-09-24, 01:17:04,VALID,1009.48,VALID,0.0,VALID,104.0,VALID,0.0,VALID,23.657,VALID,29.0,VALID,0.011,
2011-09-24, 01:18:04,VALID,1009.44,VALID,0.0,VALID,104.0,VALID,0.0,VALID,23.637,VALID,29.0,VALID,0.0,
2011-09-24, 01:19:04,VALID,1009.425,VALID,0.0,VALID,104.0,VALID,0.0,VALID,23.636,VALID,29.0,VALID,0.0,
2011-09-24, 01:20:04,VALID,1009.388,VALID,0.0,VALID,104.0,VALID,0.0,VALID,23.657,VALID,29.0,VALID,0.0,
2011-09-24, 01:21:04,VALID,1009.39,VALID,0.0,VALID,104.0,VALID,0.0,VALID,23.636,VALID,29.0,VALID,0.08,
2011-09-24, 01:22:04,VALID,1009.366,VALID,0.0,VALID,104.0,VALID,0.0,VALID,23.637,VALID,29.0,VALID,0.192,
2011-09-24, 01:23:04,VALID,1009.353,VALID,0.0,VALID,104.0,VALID,0.0,VALID,23.636,VALID,29.0,VALID,0.162,
2011-09-24, 01:24:04,VALID,1009.337,VALID,0.0,VALID,104.0,VALID,0.0,VALID,23.657,VALID,29.0,VALID,0.123,
2011-09-24, 01:25:04,VALID,1009.339,VALID,0.0,VALID,104.0,VALID,0.0,VALID,23.655,VALID,29.0,VALID,0.0,
2011-09-24, 01:26:04,VALID,1009.359,VALID,0.0,VALID,104.0,VALID,0.0,VALID,23.636,VALID,30.0,VALID,0.0,
2011-09-24, 01:27:04,VALID,1009.314,VALID,0.0,VALID,104.0,VALID,0.0,VALID,23.637,VALID,30.0,VALID,0.0,
2011-09-24, 01:28:04,VALID,1009.321,VALID,0.0,VALID,104.0,VALID,0.0,VALID,23.597,VALID,29.0,VALID,0.0,
2011-09-24, 01:29:04,VALID,1009.336,VALID,0.0,VALID,104.0,VALID,0.0,VALID,23.598,VALID,29.0,VALID,0.0,
2011-09-24, 01:30:04,VALID,1009.315,VALID,0.0,VALID,104.0,VALID,0.0,VALID,23.558,VALID,29.0,VALID,0.0,
2011-09-24, 01:31:04,VALID,1009.306,VALID,0.0,VALID,104.0,VALID,0.0,VALID,23.579,VALID,29.0,VALID,0.0,
2011-09-24, 01:32:04,VALID,1009.313,VALID,0.0,VALID,104.0,VALID,0.0,VALID,23.579,VALID,29.0,VALID,0.0,
2011-09-24, 01:33:04,VALID,1009.308,VALID,0.0,VALID,104.0,VALID,0.0,VALID,23.598,VALID,29.0,VALID,0.263,
2011-09-24, 01:34:04,VALID,1009.317,VALID,0.0,VALID,104.0,VALID,0.0,VALID,23.618,VALID,29.0,VALID,0.182,
2011-09-24, 01:35:04,VALID,1009.318,VALID,0.0,VALID,104.0,VALID,0.0,VALID,23.618,VALID,29.0,VALID,0.009,
2011-09-24, 01:36:04,VALID,1009.307,VALID,0.0,VALID,104.0,VALID,0.0,VALID,23.597,VALID,29.0,VALID,0.0,
2011-09-24, 01:37:04,VALID,1009.265,VALID,0.0,VALID,104.0,VALID,0.0,VALID,23.618,VALID,29.0,VALID,0.0,
2011-09-24, 01:38:04,VALID,1009.27,VALID,0.0,VALID,104.0,VALID,0.0,VALID,23.618,VALID,29.0,VALID,0.035,
2011-09-24, 01:39:04,VALID,1009.259,VALID,0.0,VALID,104.0,VALID,0.0,VALID,23.637,VALID,29.0,VALID,0.059,
2011-09-24, 01:40:04,VALID,1009.234,VALID,0.0,VALID,104.0,VALID,0.0,VALID,23.637,VALID,29.0,VALID,0.0,
2011-09-24, 01:41:04,VALID,1009.195,VALID,0.0,VALID,104.0,VALID,0.0,VALID,23.636,VALID,29.0,VALID,0.0,
2011-09-24, 01:42:04,VALID,1009.248,VALID,0.0,VALID,104.0,VALID,0.0,VALID,23.636,VALID,29.0,VALID,0.0,
2011-09-24, 01:43:04,VALID,1009.195,VALID,0.0,VALID,104.0,VALID,0.0,VALID,23.636,VALID,29.0,VALID,0.0,
2011-09-24, 01:44:04,VALID,1009.178,VALID,0.0,VALID,104.0,VALID,0.106,VALID,23.636,VALID,29.0,VALID,0.0,
2011-09-24, 01:45:04,VALID,1009.175,VALID,0.0,VALID,104.0,VALID,0.0,VALID,23.636,VALID,29.0,VALID,0.133,
2011-09-24, 01:46:04,VALID,1009.164,VALID,0.0,VALID,104.0,VALID,0.0,VALID,23.636,VALID,29.0,VALID,0.002,
2011-09-24, 01:47:04,VALID,1009.183,VALID,0.0,VALID,104.0,VALID,0.0,VALID,23.657,VALID,29.0,VALID,0.0,
2011-09-24, 01:48:04,VALID,1009.143,VALID,0.0,VALID,104.0,VALID,0.0,VALID,23.637,VALID,29.0,VALID,0.0,
2011-09-24, 01:49:04,VALID,1009.153,VALID,0.0,VALID,104.0,VALID,0.0,VALID,23.637,VALID,29.0,VALID,0.366,
2011-09-24, 01:50:04,VALID,1009.126,VALID,0.0,VALID,104.0,VALID,0.0,VALID,23.597,VALID,29.0,VALID,0.414,
2011-09-24, 01:51:04,VALID,1009.128,VALID,0.0,VALID,104.0,VALID,0.0,VALID,23.598,VALID,29.0,VALID,0.181,
2011-09-24, 01:52:04,VALID,1009.117,VALID,0.0,VALID,104.0,VALID,0.0,VALID,23.577,VALID,29.0,VALID,0.0,
2011-09-24, 01:53:04,VALID,1009.103,VALID,0.0,VALID,104.0,VALID,0.0,VALID,23.598,VALID,29.0,VALID,0.0,
2011-09-24, 01:54:04,VALID,1009.094,VALID,0.0,VALID,104.0,VALID,0.0,VALID,23.558,VALID,29.0,VALID,0.0,
2011-09-24, 01:55:04,VALID,1009.081,VALID,0.0,VALID,104.0,VALID,0.0,VALID,23.558,VALID,29.0,VALID,0.158,
2011-09-24, 01:56:04,VALID,1009.07,VALID,0.0,VALID,104.0,VALID,0.0,VALID,23.597,VALID,29.0,VALID,0.196,
2011-09-24, 01:57:04,VALID,1009.048,VALID,0.0,VALID,104.0,VALID,0.0,VALID,23.618,VALID,29.0,VALID,0.0,
2011-09-24, 01:58:04,VALID,1009.059,VALID,0.0,VALID,104.0,VALID,0.0,VALID,23.616,VALID,29.0,VALID,0.004,
2011-09-24, 01:59:04,VALID,1009.044,VALID,0.0,VALID,104.0,VALID,0.0,VALID,23.636,VALID,29.0,VALID,0.0,
2011-09-24, 02:00:04,VALID,1009.028,VALID,0.0,VALID,104.0,VALID,0.0,VALID,23.637,VALID,29.0,VALID,0.0,
2011-09-24, 02:01:04,VALID,1009.012,VALID,0.0,VALID,104.0,VALID,0.0,VALID,23.616,VALID,29.0,VALID,0.0,
2011-09-24, 02:02:04,VALID,1009.034,VALID,0.0,VALID,104.0,VALID,0.0,VALID,23.597,VALID,29.0,VALID,0.0,
2011-09-24, 02:03:04,VALID,1009.016,VALID,0.0,VALID,104.0,VALID,0.0,VALID,23.577,VALID,29.0,VALID,0.0,
2011-09-24, 02:04:04,VALID,1009.009,VALID,0.0,VALID,104.0,VALID,0.0,VALID,23.616,VALID,29.0,VALID,0.0,
2011-09-24, 02:05:04,VALID,1008.994,VALID,0.0,VALID,104.0,VALID,0.0,VALID,23.597,VALID,29.0,VALID,0.0,
2011-09-24, 02:06:04,VALID,1009.01,VALID,0.0,VALID,104.0,VALID,0.0,VALID,23.616,VALID,29.0,VALID,0.0,
2011-09-24, 02:07:04,VALID,1009.007,VALID,0.0,VALID,104.0,VALID,0.0,VALID,23.616,VALID,29.0,VALID,0.33,
2011-09-24, 02:08:04,VALID,1009.006,VALID,0.0,VALID,104.0,VALID,0.0,VALID,23.616,VALID,29.0,VALID,0.354,
2011-09-24, 02:09:04,VALID,1009.045,VALID,0.0,VALID,104.0,VALID,0.0,VALID,23.597,VALID,29.0,VALID,0.227,
2011-09-24, 02:10:04,VALID,1009.043,VALID,0.0,VALID,104.0,VALID,0.0,VALID,23.597,VALID,29.0,VALID,0.236,
2011-09-24, 02:11:04,VALID,1009.055,VALID,0.0,VALID,104.0,VALID,0.0,VALID,23.577,VALID,29.0,VALID,0.293,
2011-09-24, 02:12:04,VALID,1009.052,VALID,0.0,VALID,104.0,VALID,0.0,VALID,23.598,VALID,29.0,VALID,0.48,
2011-09-24, 02:13:04,VALID,1009.042,VALID,0.0,VALID,104.0,VALID,0.0,VALID,23.598,VALID,29.0,VALID,0.581,
2011-09-24, 02:14:04,VALID,1009.069,VALID,0.0,VALID,104.0,VALID,0.0,VALID,23.559,VALID,29.0,VALID,0.307,
2011-09-24, 02:15:04,VALID,1009.082,VALID,0.0,VALID,104.0,VALID,0.0,VALID,23.519,VALID,29.0,VALID,0.236,
2011-09-24, 02:16:04,VALID,1009.06,VALID,0.0,VALID,104.0,VALID,0.0,VALID,23.481,VALID,29.0,VALID,0.257,
2011-09-24, 02:17:04,VALID,1009.088,VALID,0.0,VALID,104.0,VALID,0.0,VALID,23.462,VALID,29.0,VALID,0.37,
2011-09-24, 02:18:04,VALID,1009.075,VALID,0.0,VALID,104.0,VALID,0.0,VALID,23.481,VALID,29.0,VALID,0.24,
2011-09-24, 02:19:04,VALID,1009.053,VALID,0.0,VALID,104.0,VALID,0.0,VALID,23.46,VALID,29.0,VALID,0.276,
2011-09-24, 02:20:04,VALID,1009.064,VALID,0.0,VALID,104.0,VALID,0.0,VALID,23.462,VALID,29.0,VALID,0.377,
2011-09-24, 02:21:04,VALID,1009.071,VALID,0.0,VALID,104.0,VALID,0.0,VALID,23.441,VALID,29.0,VALID,0.527,
2011-09-24, 02:22:04,VALID,1009.071,VALID,0.0,VALID,104.0,VALID,0.0,VALID,23.421,VALID,29.0,VALID,0.239,
2011-09-24, 02:23:04,VALID,1009.085,VALID,0.0,VALID,104.0,VALID,0.0,VALID,23.421,VALID,29.0,VALID,0.0,
2011-09-24, 02:24:04,VALID,1009.056,VALID,0.0,VALID,104.0,VALID,0.0,VALID,23.402,VALID,29.0,VALID,0.0,
2011-09-24, 02:25:04,VALID,1009.042,VALID,0.0,VALID,104.0,VALID,0.0,VALID,23.382,VALID,29.0,VALID,0.0,
2011-09-24, 02:26:04,VALID,1009.043,VALID,0.0,VALID,104.0,VALID,0.0,VALID,23.382,VALID,29.0,VALID,0.0,
2011-09-24, 02:27:04,VALID,1009.035,VALID,0.0,VALID,104.0,VALID,0.0,VALID,23.404,VALID,29.0,VALID,0.328,
2011-09-24, 02:28:04,VALID,1009.019,VALID,0.0,VALID,104.0,VALID,0.0,VALID,23.382,VALID,29.0,VALID,0.245,
2011-09-24, 02:29:04,VALID,1009.024,VALID,0.0,VALID,104.0,VALID,0.0,VALID,23.382,VALID,29.0,VALID,0.4,
2011-09-24, 02:30:04,VALID,1009.007,VALID,0.0,VALID,104.0,VALID,0.0,VALID,23.402,VALID,29.0,VALID,0.357,
2011-09-24, 02:31:04,VALID,1009.021,VALID,0.0,VALID,104.0,VALID,0.0,VALID,23.404,VALID,29.0,VALID,0.225,
2011-09-24, 02:32:04,VALID,1009.036,VALID,0.0,VALID,104.0,VALID,0.0,VALID,23.402,VALID,29.0,VALID,0.257,
2011-09-24, 02:33:04,VALID,1009.021,VALID,0.0,VALID,104.0,VALID,0.0,VALID,23.404,VALID,29.0,VALID,0.305,
2011-09-24, 02:34:04,VALID,1009.007,VALID,0.0,VALID,104.0,VALID,0.0,VALID,23.402,VALID,29.0,VALID,0.173,
2011-09-24, 02:35:04,VALID,1009.011,VALID,0.0,VALID,104.0,VALID,0.0,VALID,23.423,VALID,29.0,VALID,0.068,
2011-09-24, 02:36:04,VALID,1009.015,VALID,0.0,VALID,104.0,VALID,0.0,VALID,23.423,VALID,29.0,VALID,0.221,
2011-09-24, 02:37:04,VALID,1009.015,VALID,0.0,VALID,104.0,VALID,0.0,VALID,23.402,VALID,29.0,VALID,0.0,
2011-09-24, 02:38:04,VALID,1009.018,VALID,0.0,VALID,104.0,VALID,0.0,VALID,23.402,VALID,29.0,VALID,0.0,
2011-09-24, 02:39:04,VALID,1009.034,VALID,0.0,VALID,104.0,VALID,0.0,VALID,23.404,VALID,29.0,VALID,0.0,
2011-09-24, 02:40:04,VALID,1009.012,VALID,0.0,VALID,104.0,VALID,0.0,VALID,23.382,VALID,29.0,VALID,0.0,
2011-09-24, 02:41:04,VALID,1009.024,VALID,0.0,VALID,104.0,VALID,0.0,VALID,23.384,VALID,29.0,VALID,0.0,
2011-09-24, 02:42:04,VALID,1009.047,VALID,0.0,VALID,104.0,VALID,0.0,VALID,23.384,VALID,29.0,VALID,0.089,
2011-09-24, 02:43:04,VALID,1009.027,VALID,0.0,VALID,104.0,VALID,0.0,VALID,23.363,VALID,29.0,VALID,0.075,
2011-09-24, 02:44:04,VALID,1009.035,VALID,0.0,VALID,104.0,VALID,0.0,VALID,23.363,VALID,29.0,VALID,0.29,
2011-09-24, 02:45:04,VALID,1009.057,VALID,0.0,VALID,104.0,VALID,0.0,VALID,23.361,VALID,29.0,VALID,0.284,
2011-09-24, 02:46:04,VALID,1009.071,VALID,0.0,VALID,104.0,VALID,0.0,VALID,23.363,VALID,29.0,VALID,0.191,
2011-09-24, 02:47:04,VALID,1009.105,VALID,0.0,VALID,104.0,VALID,0.0,VALID,23.343,VALID,29.0,VALID,0.18,
2011-09-24, 02:48:04,VALID,1009.057,VALID,0.0,VALID,104.0,VALID,0.0,VALID,23.343,VALID,29.0,VALID,0.267,
2011-09-24, 02:49:04,VALID,1009.105,VALID,0.0,VALID,104.0,VALID,0.0,VALID,23.365,VALID,29.0,VALID,0.244,
2011-09-24, 02:50:04,VALID,1009.109,VALID,0.0,VALID,104.0,VALID,0.0,VALID,23.343,VALID,29.0,VALID,0.18,
2011-09-24, 02:51:04,VALID,1009.084,VALID,0.0,VALID,104.0,VALID,0.0,VALID,23.324,VALID,29.0,VALID,0.0,
2011-09-24, 02:52:04,VALID,1009.053,VALID,0.0,VALID,104.0,VALID,0.0,VALID,23.343,VALID,29.0,VALID,0.002,
2011-09-24, 02:53:04,VALID,1009.041,VALID,0.0,VALID,104.0,VALID,0.0,VALID,23.363,VALID,29.0,VALID,0.207,
2011-09-24, 02:54:04,VALID,1009.046,VALID,0.0,VALID,104.0,VALID,0.0,VALID,23.363,VALID,29.0,VALID,0.165,
2011-09-24, 02:55:04,VALID,1009.015,VALID,0.0,VALID,104.0,VALID,0.0,VALID,23.365,VALID,29.0,VALID,0.021,
2011-09-24, 02:56:04,VALID,1009.014,VALID,0.0,VALID,104.0,VALID,0.0,VALID,23.343,VALID,29.0,VALID,0.0,
2011-09-24, 02:57:04,VALID,1008.983,VALID,0.0,VALID,104.0,VALID,0.0,VALID,23.343,VALID,29.0,VALID,0.0,
2011-09-24, 02:58:04,VALID,1009.014,VALID,0.0,VALID,104.0,VALID,0.0,VALID,23.365,VALID,29.0,VALID,0.14,
2011-09-24, 02:59:04,VALID,1009.028,VALID,0.0,VALID,104.0,VALID,0.0,VALID,23.343,VALID,29.0,VALID,0.096,
2011-09-24, 03:00:04,VALID,1009.022,VALID,0.0,VALID,104.0,VALID,0.0,VALID,23.345,VALID,29.0,VALID,0.0,
2011-09-24, 03:01:04,VALID,1009.038,VALID,0.0,VALID,104.0,VALID,0.0,VALID,23.304,VALID,29.0,VALID,0.0,
2011-09-24, 03:02:04,VALID,1009.05,VALID,0.0,VALID,104.0,VALID,0.0,VALID,23.285,VALID,29.0,VALID,0.0,
2011-09-24, 03:03:04,VALID,1009.027,VALID,0.0,VALID,104.0,VALID,0.0,VALID,23.265,VALID,29.0,VALID,0.0,
2011-09-24, 03:04:04,VALID,1009.026,VALID,0.0,VALID,104.0,VALID,0.0,VALID,23.267,VALID,29.0,VALID,0.0,
2011-09-24, 03:05:04,VALID,1009.038,VALID,0.0,VALID,104.0,VALID,0.0,VALID,23.248,VALID,29.0,VALID,0.225,
2011-09-24, 03:06:04,VALID,1009.042,VALID,0.0,VALID,104.0,VALID,0.0,VALID,23.226,VALID,29.0,VALID,0.139,
2011-09-24, 03:07:04,VALID,1009.015,VALID,0.0,VALID,104.0,VALID,0.0,VALID,23.248,VALID,29.0,VALID,0.113,
2011-09-24, 03:08:04,VALID,1009.026,VALID,0.0,VALID,104.0,VALID,0.0,VALID,23.207,VALID,29.0,VALID,0.145,
2011-09-24, 03:09:04,VALID,1009.03,VALID,0.0,VALID,104.0,VALID,0.0,VALID,23.209,VALID,29.0,VALID,0.037,
2011-09-24, 03:10:04,VALID,1009.071,VALID,0.0,VALID,104.0,VALID,0.0,VALID,23.209,VALID,29.0,VALID,0.006,
2011-09-24, 03:11:04,VALID,1009.04,VALID,0.0,VALID,104.0,VALID,0.0,VALID,23.207,VALID,29.0,VALID,0.084,
2011-09-24, 03:12:04,VALID,1009.047,VALID,0.0,VALID,104.0,VALID,0.0,VALID,23.226,VALID,29.0,VALID,0.099,
2011-09-24, 03:13:04,VALID,1009.061,VALID,0.0,VALID,104.0,VALID,0.0,VALID,23.246,VALID,29.0,VALID,0.0,
2011-09-24, 03:14:04,VALID,1009.018,VALID,0.0,VALID,104.0,VALID,0.0,VALID,23.267,VALID,29.0,VALID,0.191,
2011-09-24, 03:15:04,VALID,1009.038,VALID,0.0,VALID,104.0,VALID,0.0,VALID,23.248,VALID,29.0,VALID,0.141,
2011-09-24, 03:16:04,VALID,1009.036,VALID,0.0,VALID,104.0,VALID,0.0,VALID,23.207,VALID,29.0,VALID,0.0,
2011-09-24, 03:17:04,VALID,1009.05,VALID,0.0,VALID,104.0,VALID,0.0,VALID,23.228,VALID,29.0,VALID,0.0,
2011-09-24, 03:18:04,VALID,1009.023,VALID,0.0,VALID,104.0,VALID,0.0,VALID,23.228,VALID,29.0,VALID,0.0,
2011-09-24, 03:19:04,VALID,1009.043,VALID,0.0,VALID,104.0,VALID,0.0,VALID,23.207,VALID,29.0,VALID,0.0,
2011-09-24, 03:20:04,VALID,1009.059,VALID,0.0,VALID,104.0,VALID,0.106,VALID,23.186,VALID,29.0,VALID,0.122,
2011-09-24, 03:21:04,VALID,1009.061,VALID,0.0,VALID,104.0,VALID,0.106,VALID,23.226,VALID,29.0,VALID,0.256,
2011-09-24, 03:22:04,VALID,1009.08,VALID,0.0,VALID,104.0,VALID,0.106,VALID,23.226,VALID,29.0,VALID,0.123,
2011-09-24, 03:23:04,VALID,1009.059,VALID,0.0,VALID,104.0,VALID,0.106,VALID,23.226,VALID,29.0,VALID,0.12,
2011-09-24, 03:24:04,VALID,1009.053,VALID,0.0,VALID,104.0,VALID,0.0,VALID,23.186,VALID,29.0,VALID,0.0,
2011-09-24, 03:25:04,VALID,1009.035,VALID,0.0,VALID,104.0,VALID,0.106,VALID,23.207,VALID,29.0,VALID,0.001,
2011-09-24, 03:26:04,VALID,1009.021,VALID,0.0,VALID,104.0,VALID,0.0,VALID,23.207,VALID,29.0,VALID,0.22,
2011-09-24, 03:27:04,VALID,1009.029,VALID,0.0,VALID,104.0,VALID,0.106,VALID,23.186,VALID,29.0,VALID,0.0,
2011-09-24, 03:28:04,VALID,1009.005,VALID,0.0,VALID,104.0,VALID,0.0,VALID,23.226,VALID,29.0,VALID,0.0,
2011-09-24, 03:29:04,VALID,1008.997,VALID,0.0,VALID,104.0,VALID,0.106,VALID,23.226,VALID,29.0,VALID,0.005,
2011-09-24, 03:30:04,VALID,1009.023,VALID,0.0,VALID,104.0,VALID,0.106,VALID,23.246,VALID,29.0,VALID,0.0,
2011-09-24, 03:31:04,VALID,1008.997,VALID,0.0,VALID,104.0,VALID,0.106,VALID,23.267,VALID,29.0,VALID,0.0,
2011-09-24, 03:32:04,VALID,1009.013,VALID,0.0,VALID,104.0,VALID,0.0,VALID,23.246,VALID,29.0,VALID,0.0,
2011-09-24, 03:33:04,VALID,1009.009,VALID,0.0,VALID,104.0,VALID,0.106,VALID,23.225,VALID,29.0,VALID,0.0,
2011-09-24, 03:34:04,VALID,1009.025,VALID,0.0,VALID,104.0,VALID,0.106,VALID,23.244,VALID,29.0,VALID,0.191,
2011-09-24, 03:35:04,VALID,1008.985,VALID,0.0,VALID,104.0,VALID,0.0,VALID,23.265,VALID,29.0,VALID,0.0,
2011-09-24, 03:36:04,VALID,1009.004,VALID,0.0,VALID,104.0,VALID,0.0,VALID,23.246,VALID,29.0,VALID,0.0,
2011-09-24, 03:37:04,VALID,1009.009,VALID,0.0,VALID,104.0,VALID,0.0,VALID,23.287,VALID,29.0,VALID,0.0,
2011-09-24, 03:38:04,VALID,1009.009,VALID,0.0,VALID,104.0,VALID,0.0,VALID,23.267,VALID,29.0,VALID,0.0,
2011-09-24, 03:39:04,VALID,1008.997,VALID,0.0,VALID,104.0,VALID,0.0,VALID,23.267,VALID,29.0,VALID,0.0,
2011-09-24, 03:40:04,VALID,1008.975,VALID,0.0,VALID,104.0,VALID,0.0,VALID,23.246,VALID,29.0,VALID,0.0,
2011-09-24, 03:41:04,VALID,1008.985,VALID,0.0,VALID,104.0,VALID,0.0,VALID,23.226,VALID,29.0,VALID,0.0,
2011-09-24, 03:42:04,VALID,1008.983,VALID,0.0,VALID,104.0,VALID,0.0,VALID,23.248,VALID,29.0,VALID,0.197,
2011-09-24, 03:43:04,VALID,1008.988,VALID,0.0,VALID,104.0,VALID,0.0,VALID,23.226,VALID,29.0,VALID,0.22,
2011-09-24, 03:44:04,VALID,1008.99,VALID,0.0,VALID,104.0,VALID,0.0,VALID,23.246,VALID,29.0,VALID,0.164,
2011-09-24, 03:45:04,VALID,1009.0,VALID,0.0,VALID,104.0,VALID,0.0,VALID,23.246,VALID,29.0,VALID,0.033,